This is the latest recevied weather packets stored in our database for station/object DD8XX-10. If no packets are shown the sender has not sent any weather packets the latest 10 day(s).
| Time | Temp. | Humidity | Pressure | Rain* | Wind** | Luminosity | Snow |
|---|---|---|---|---|---|---|---|
| 1776955034 | 16.67° C | 18% | 1028 hPa | - | - | - | - |
| 1776954134 | 17.22° C | 18% | 1028 hPa | - | - | - | - |
| 1776953234 | 17.22° C | 17% | 1028.1 hPa | - | - | - | - |
| 1776952333 | 17.22° C | 18% | 1028.2 hPa | - | - | - | - |
| 1776951433 | 17.22° C | 20% | 1028.3 hPa | - | - | - | - |
| 1776950533 | 17.22° C | 19% | 1028.5 hPa | - | - | - | - |
| 1776949633 | 16.67° C | 20% | 1028.6 hPa | - | - | - | - |
| 1776948733 | 17.22° C | 19% | 1028.8 hPa | - | - | - | - |
| 1776947833 | 16.67° C | 18% | 1028.9 hPa | - | - | - | - |
| 1776946933 | 17.22° C | 20% | 1029 hPa | - | - | - | - |
| 1776946033 | 16.67° C | 21% | 1029.3 hPa | - | - | - | - |
| 1776945132 | 16.67° C | 21% | 1029.4 hPa | - | - | - | - |
| 1776944232 | 16.67° C | 22% | 1029.3 hPa | - | - | - | - |
| 1776943332 | 16.11° C | 21% | 1029.4 hPa | - | - | - | - |
| 1776942436 | 15.56° C | 22% | 1029.6 hPa | - | - | - | - |
| 1776942432 | 15.56° C | 22% | 1029.6 hPa | - | - | - | - |
| 1776941532 | 15.56° C | 20% | 1029.9 hPa | - | - | - | - |
| 1776940636 | 15.56° C | 26% | 1030 hPa | - | - | - | - |
| 1776940632 | 15.56° C | 26% | 1030 hPa | - | - | - | - |
| 1776939736 | 15.56° C | 24% | 1030 hPa | - | - | - | - |
| 1776939732 | 15.56° C | 24% | 1030 hPa | - | - | - | - |
| 1776938836 | 15.56° C | 29% | 1030.1 hPa | - | - | - | - |
| 1776938832 | 15.56° C | 29% | 1030.1 hPa | - | - | - | - |
| 1776937937 | 15° C | 28% | 1030.3 hPa | - | - | - | - |
| 1776937932 | 15° C | 28% | 1030.3 hPa | - | - | - | - |
* Rain since midnight (hover to see other rain measurements)
** Current wind speed in m/s (hover to see current wind gust speed)